| time (UTC) | temp F | wind direction | speed MPH | gust MPH | rain 1hr in | rain 24hr in | rain mn in | humidity % | barometer mb |
| 20260509161715 | 52 | 225 | 1.0 | 2.0 | 0.00 | 0.27 | 0.27 | 93 | 1009.2 |
| 20260509160715 | 52 | 0.0 | 1.0 | 0.00 | 0.27 | 0.27 | 93 | 1009.3 | |
| 20260509155716 | 52 | 0.0 | 0.0 | 0.00 | 0.27 | 0.27 | 93 | 1009.5 | |
| 20260509154635 | 52 | 0.0 | 0.0 | 0.00 | 0.27 | 0.27 | 94 | 1009.3 | |
| 20260509153615 | 52 | 0.0 | 0.0 | 0.00 | 0.27 | 0.27 | 94 | 1009.4 | |
| 20260509152635 | 52 | 0.0 | 0.0 | 0.01 | 0.27 | 0.27 | 94 | 1009.4 | |
| 20260509151717 | 52 | 0.0 | 0.0 | 0.01 | 0.27 | 0.27 | 94 | 1009.5 | |
| 20260509150617 | 52 | 0.0 | 0.0 | 0.01 | 0.27 | 0.27 | 95 | 1009.7 | |
| 20260509145757 | 52 | 0.0 | 0.0 | 0.02 | 0.27 | 0.27 | 95 | 1009.8 | |
| 20260509144637 | 52 | 0.0 | 0.0 | 0.02 | 0.27 | 0.27 | 95 | 1009.9 | |
| 20260509143617 | 51 | 0.0 | 1.0 | 0.02 | 0.27 | 0.27 | 95 | 1010.0 | |
| 20260509142637 | 51 | 0.0 | 2.0 | 0.02 | 0.26 | 0.26 | 95 | 1010.1 | |
| 20260509141718 | 51 | 90 | 1.0 | 3.0 | 0.02 | 0.26 | 0.26 | 95 | 1010.1 |
| 20260509140637 | 50 | 225 | 1.0 | 2.0 | 0.03 | 0.26 | 0.26 | 95 | 1010.2 |
| 20260509135617 | 50 | 0.0 | 2.0 | 0.03 | 0.25 | 0.25 | 95 | 1010.2 | |
| 20260509134616 | 50 | 202 | 1.0 | 2.0 | 0.03 | 0.25 | 0.25 | 95 | 1010.3 |
| 20260509133616 | 50 | 0.0 | 0.0 | 0.04 | 0.25 | 0.25 | 95 | 1010.3 | |
| 20260509132657 | 48 | 0.0 | 0.0 | 0.05 | 0.24 | 0.24 | 95 | 1010.3 | |
| 20260509131616 | 47 | 0.0 | 0.0 | 0.06 | 0.24 | 0.24 | 95 | 1010.4 | |
| 20260509130619 | 47 | 0.0 | 0.0 | 0.05 | 0.23 | 0.23 | 95 | 1010.4 | |
| 20260509125615 | 46 | 0.0 | 0.0 | 0.05 | 0.22 | 0.22 | 94 | 1010.4 | |
| 20260509124636 | 47 | 0.0 | 0.0 | 0.06 | 0.22 | 0.22 | 94 | 1010.5 | |
| 20260509122637 | 46 | 0.0 | 0.0 | 0.05 | 0.19 | 0.19 | 94 | 1010.8 | |
| 20260509121636 | 45 | 0.0 | 0.0 | 0.05 | 0.18 | 0.18 | 94 | 1010.9 | |
| 20260509120737 | 45 | 0.0 | 0.0 | 0.06 | 0.18 | 0.18 | 94 | 1010.8 | |
| 20260509115617 | 45 | 0.0 | 0.0 | 0.07 | 0.17 | 0.17 | 94 | 1011.0 | |
| 20260509114616 | 44 | 0.0 | 0.0 | 0.08 | 0.16 | 0.16 | 94 | 1011.0 | |
| 20260509113616 | 44 | 0.0 | 0.0 | 0.09 | 0.15 | 0.15 | 94 | 1011.0 | |
| 20260509112657 | 44 | 0.0 | 0.0 | 0.09 | 0.13 | 0.14 | 94 | 1011.1 | |
| 20260509111616 | 44 | 0.0 | 0.0 | 0.09 | 0.12 | 0.13 | 94 | 1011.1 | |
| 20260509110636 | 43 | 0.0 | 0.0 | 0.09 | 0.11 | 0.12 | 94 | 1011.0 | |
| 20260509105636 | 43 | 0.0 | 0.0 | 0.08 | 0.10 | 0.10 | 94 | 1011.0 | |
| 20260509104617 | 43 | 0.0 | 0.0 | 0.06 | 0.08 | 0.08 | 93 | 1010.9 | |
| 20260509103616 | 43 | 0.0 | 0.0 | 0.04 | 0.06 | 0.06 | 93 | 1010.6 | |
| 20260509102716 | 43 | 0.0 | 0.0 | 0.03 | 0.05 | 0.05 | 93 | 1010.7 | |
| 20260509101636 | 43 | 0.0 | 0.0 | 0.02 | 0.04 | 0.04 | 93 | 1010.9 | |
| 20260509100657 | 43 | 0.0 | 0.0 | 0.01 | 0.03 | 0.03 | 93 | 1010.9 | |
| 20260509095636 | 43 | 0.0 | 0.0 | 0.00 | 0.02 | 0.02 | 93 | 1010.8 | |
| 20260509094616 | 43 | 0.0 | 0.0 | 0.00 | 0.02 | 0.02 | 93 | 1010.7 | |
| 20260509093717 | 43 | 0.0 | 0.0 | 0.00 | 0.02 | 0.02 | 93 | 1010.8 | |
| 20260509092636 | 43 | 0.0 | 0.0 | 0.00 | 0.02 | 0.02 | 93 | 1010.8 | |
| 20260509091616 | 42 | 0.0 | 0.0 | 0.00 | 0.02 | 0.02 | 93 | 1011.0 | |
| 20260509090637 | 42 | 0.0 | 0.0 | 0.00 | 0.02 | 0.02 | 93 | 1010.9 | |
| 20260509085617 | 42 | 0.0 | 0.0 | 0.01 | 0.02 | 0.02 | 93 | 1011.0 | |
| 20260509084636 | 42 | 0.0 | 0.0 | 0.01 | 0.02 | 0.02 | 92 | 1011.0 | |
| 20260509083657 | 42 | 0.0 | 0.0 | 0.01 | 0.02 | 0.02 | 92 | 1011.1 | |
| 20260509082616 | 42 | 0.0 | 0.0 | 0.01 | 0.02 | 0.02 | 92 | 1011.1 | |
| 20260509081636 | 42 | 0.0 | 0.0 | 0.01 | 0.02 | 0.02 | 92 | 1010.9 | |
| 20260509080617 | 42 | 0.0 | 0.0 | 0.01 | 0.02 | 0.02 | 92 | 1011.1 | |
| 20260509075636 | 42 | 0.0 | 0.0 | 0.00 | 0.01 | 0.01 | 92 | 1011.4 | |
| 20260509074616 | 43 | 0.0 | 0.0 | 0.00 | 0.01 | 0.01 | 92 | 1011.5 | |
| 20260509073656 | 42 | 0.0 | 0.0 | 0.00 | 0.01 | 0.01 | 92 | 1011.4 | |
| 20260509072636 | 42 | 0.0 | 0.0 | 0.00 | 0.01 | 0.01 | 91 | 1011.4 | |
| 20260509071616 | 42 | 0.0 | 0.0 | 0.00 | 0.01 | 0.01 | 91 | 1011.4 | |
| 20260509070616 | 42 | 0.0 | 0.0 | 0.01 | 0.01 | 0.01 | 91 | 1011.4 | |
| 20260509065617 | 43 | 0.0 | 0.0 | 0.01 | 0.01 | 0.01 | 91 | 1011.3 | |
| 20260509064636 | 42 | 0.0 | 0.0 | 0.01 | 0.01 | 0.01 | 90 | 1011.5 | |
| 20260509063617 | 43 | 0.0 | 0.0 | 0.01 | 0.01 | 0.01 | 90 | 1011.6 | |
| 20260509062616 | 42 | 0.0 | 0.0 | 0.01 | 0.01 | 0.01 | 90 | 1011.7 | |
| 20260509061656 | 43 | 0.0 | 0.0 | 0.01 | 0.01 | 0.01 | 89 | 1011.8 | |
| 20260509060636 | 43 | 0.0 | 0.0 | 0.00 | 0.00 | 0.00 | 88 | 1011.7 | |
| 20260509055616 | 43 | 0.0 | 0.0 | 0.00 | 0.00 | 0.00 | 87 | 1011.8 | |
| 20260509054616 | 43 | 0.0 | 0.0 | 0.00 | 0.00 | 0.00 | 86 | 1011.9 | |
| 20260509053616 | 44 | 0.0 | 0.0 | 0.00 | 0.00 | 0.00 | 86 | 1012.0 | |
| 20260509052657 | 44 | 0.0 | 0.0 | 0.00 | 0.00 | 0.00 | 86 | 1012.0 | |
| 20260509051636 | 44 | 0.0 | 0.0 | 0.00 | 0.00 | 0.00 | 86 | 1012.0 | |
| 20260509050616 | 43 | 0.0 | 0.0 | 0.00 | 0.00 | 0.00 | 86 | 1012.0 | |
| 20260509045616 | 43 | 0.0 | 0.0 | 0.00 | 0.00 | 0.00 | 86 | 1011.8 | |
| 20260509042636 | 44 | 0.0 | 0.0 | 0.00 | 0.00 | 0.00 | 88 | 1011.8 | |
| 20260509041656 | 43 | 0.0 | 0.0 | 0.00 | 0.00 | 0.00 | 88 | 1012.1 | |
| 20260509040616 | 43 | 0.0 | 0.0 | 0.00 | 0.00 | 0.00 | 88 | 1011.9 | |
| 20260509035616 | 43 | 0.0 | 0.0 | 0.00 | 0.00 | 0.00 | 88 | 1011.8 | |
| 20260509034637 | 42 | 0.0 | 0.0 | 0.00 | 0.00 | 0.00 | 88 | 1011.8 | |
| 20260509033616 | 42 | 0.0 | 0.0 | 0.00 | 0.00 | 0.00 | 87 | 1011.9 | |
| 20260509032636 | 42 | 0.0 | 0.0 | 0.00 | 0.00 | 0.00 | 87 | 1012.0 | |
| 20260509031637 | 42 | 0.0 | 0.0 | 0.00 | 0.00 | 0.00 | 87 | 1011.9 | |
| 20260509030616 | 43 | 0.0 | 0.0 | 0.00 | 0.00 | 0.00 | 86 | 1011.9 | |
| 20260509025616 | 43 | 0.0 | 0.0 | 0.00 | 0.00 | 0.00 | 86 | 1011.9 | |
| 20260509024616 | 43 | 0.0 | 0.0 | 0.00 | 0.00 | 0.00 | 85 | 1012.1 | |
| 20260509023616 | 43 | 0.0 | 0.0 | 0.00 | 0.00 | 0.00 | 84 | 1012.2 | |
| 20260509022737 | 44 | 0.0 | 0.0 | 0.00 | 0.00 | 0.00 | 83 | 1012.0 | |
| 20260509021616 | 45 | 0.0 | 0.0 | 0.00 | 0.00 | 0.00 | 83 | 1011.9 | |
| 20260509020616 | 46 | 0.0 | 0.0 | 0.00 | 0.00 | 0.00 | 82 | 1012.0 | |
| 20260509015616 | 47 | 0.0 | 0.0 | 0.00 | 0.00 | 0.00 | 80 | 1012.1 | |
| 20260509014616 | 47 | 0.0 | 0.0 | 0.00 | 0.00 | 0.00 | 80 | 1012.1 | |
| 20260509013616 | 48 | 0.0 | 0.0 | 0.00 | 0.00 | 0.00 | 81 | 1012.1 | |
| 20260509012657 | 48 | 0.0 | 0.0 | 0.00 | 0.00 | 0.00 | 80 | 1011.9 | |
| 20260509011616 | 48 | 0.0 | 0.0 | 0.00 | 0.00 | 0.00 | 79 | 1011.7 | |
| 20260509010616 | 48 | 0.0 | 0.0 | 0.00 | 0.00 | 0.00 | 77 | 1011.8 | |
| 20260509005636 | 48 | 0.0 | 0.0 | 0.00 | 0.00 | 0.00 | 77 | 1011.5 | |
| 20260509004616 | 48 | 0.0 | 0.0 | 0.00 | 0.00 | 0.00 | 77 | 1011.3 | |
| 20260509003616 | 49 | 0.0 | 0.0 | 0.00 | 0.00 | 0.00 | 75 | 1011.1 | |
| 20260509002637 | 50 | 0.0 | 0.0 | 0.00 | 0.00 | 0.00 | 74 | 1011.1 | |
| 20260509001636 | 51 | 0.0 | 0.0 | 0.00 | 0.00 | 0.00 | 72 | 1011.1 | |
| 20260509000616 | 51 | 0.0 | 0.0 | 0.00 | 0.00 | 0.00 | 71 | 1011.0 | |
| 20260508235615 | 52 | 0.0 | 0.0 | 0.00 | 0.00 | 0.00 | 68 | 1010.9 | |
| 20260508234736 | 54 | 0.0 | 0.0 | 0.00 | 0.00 | 0.00 | 59 | 1010.9 | |
| 20260508233615 | 54 | 0.0 | 0.0 | 0.00 | 0.00 | 0.00 | 59 | 1010.7 | |
| 20260508232736 | 55 | 0.0 | 0.0 | 0.00 | 0.00 | 0.00 | 58 | 1010.6 | |
| 20260508231615 | 55 | 0.0 | 1.0 | 0.00 | 0.00 | 0.00 | 57 | 1010.6 | |
| 20260508230615 | 55 | 337 | 1.0 | 2.0 | 0.00 | 0.00 | 0.00 | 54 | 1010.7 |
| 20260508225636 | 56 | 247 | 1.0 | 2.0 | 0.00 | 0.00 | 0.00 | 50 | 1010.6 |
| 20260508224615 | 56 | 22 | 1.0 | 1.0 | 0.00 | 0.00 | 0.00 | 50 | 1010.5 |
| 20260508223716 | 56 | 0.0 | 1.0 | 0.00 | 0.00 | 0.00 | 52 | 1010.5 | |
| 20260508222615 | 56 | 0.0 | 2.0 | 0.00 | 0.00 | 0.00 | 51 | 1010.5 | |
| 20260508221616 | 57 | 67 | 2.0 | 3.0 | 0.00 | 0.00 | 0.00 | 52 | 1010.5 |
| 20260508220615 | 57 | 45 | 2.0 | 3.0 | 0.00 | 0.00 | 0.00 | 53 | 1010.5 |
| 20260508215615 | 57 | 0.0 | 1.0 | 0.00 | 0.00 | 0.00 | 53 | 1010.5 | |
| 20260508213616 | 56 | 67 | 4.0 | 5.0 | 0.00 | 0.00 | 0.00 | 52 | 1010.7 |
| 20260508212655 | 56 | 0.0 | 2.0 | 0.00 | 0.00 | 0.00 | 51 | 1010.7 | |
| 20260508211615 | 57 | 0.0 | 1.0 | 0.00 | 0.00 | 0.00 | 60 | 1010.7 | |
| 20260508210635 | 57 | 45 | 1.0 | 2.0 | 0.00 | 0.00 | 0.00 | 53 | 1010.7 |
| 20260508205716 | 58 | 337 | 1.0 | 4.0 | 0.00 | 0.00 | 0.00 | 53 | 1010.9 |
| 20260508204615 | 56 | 0 | 1.0 | 4.0 | 0.00 | 0.00 | 0.00 | 51 | 1010.9 |
| 20260508202636 | 56 | 270 | 3.0 | 4.0 | 0.00 | 0.00 | 0.00 | 53 | 1011.1 |
| 20260508201655 | 56 | 292 | 8.0 | 12.0 | 0.00 | 0.00 | 0.00 | 52 | 1011.4 |
| 20260508200615 | 55 | 22 | 1.0 | 3.0 | 0.00 | 0.00 | 0.00 | 54 | 1011.4 |
| 20260508195616 | 55 | 247 | 1.0 | 4.0 | 0.00 | 0.00 | 0.00 | 52 | 1011.5 |
| 20260508194615 | 56 | 0.0 | 2.0 | 0.00 | 0.00 | 0.00 | 55 | 1011.6 | |
| 20260508193635 | 56 | 315 | 1.0 | 3.0 | 0.00 | 0.00 | 0.00 | 52 | 1011.8 |
| 20260508192615 | 55 | 292 | 3.0 | 7.0 | 0.00 | 0.00 | 0.00 | 52 | 1011.9 |
| 20260508191656 | 56 | 67 | 5.0 | 9.0 | 0.00 | 0.00 | 0.00 | 55 | 1012.0 |
| 20260508190715 | 56 | 292 | 4.0 | 8.0 | 0.00 | 0.00 | 0.00 | 54 | 1012.2 |
| 20260508185616 | 56 | 315 | 4.0 | 6.0 | 0.00 | 0.00 | 0.00 | 56 | 1012.2 |
| 20260508184635 | 55 | 292 | 6.0 | 12.0 | 0.00 | 0.00 | 0.00 | 58 | 1012.4 |
| 20260508183615 | 54 | 270 | 5.0 | 7.0 | 0.00 | 0.00 | 0.00 | 61 | 1012.6 |
| 20260508182715 | 54 | 247 | 4.0 | 8.0 | 0.00 | 0.00 | 0.00 | 62 | 1012.8 |
| 20260508181616 | 53 | 202 | 6.0 | 8.0 | 0.00 | 0.00 | 0.00 | 63 | 1012.7 |
| 20260508180636 | 52 | 292 | 3.0 | 7.0 | 0.00 | 0.00 | 0.00 | 64 | 1012.8 |
| 20260508175615 | 51 | 270 | 1.0 | 3.0 | 0.00 | 0.00 | 0.00 | 69 | 1012.8 |
| 20260508174615 | 50 | 0.0 | 1.0 | 0.00 | 0.00 | 0.00 | 69 | 1012.9 | |
| 20260508173635 | 50 | 292 | 2.0 | 4.0 | 0.00 | 0.00 | 0.00 | 70 | 1013.0 |
| 20260508172615 | 50 | 67 | 3.0 | 4.0 | 0.00 | 0.00 | 0.00 | 68 | 1013.0 |
| 20260508171656 | 49 | 135 | 1.0 | 2.0 | 0.00 | 0.00 | 0.00 | 72 | 1013.0 |
| 20260508170655 | 50 | 315 | 2.0 | 3.0 | 0.00 | 0.00 | 0.00 | 76 | 1013.1 |
| 20260508165656 | 49 | 247 | 4.0 | 8.0 | 0.00 | 0.00 | 0.00 | 78 | 1013.2 |
| 20260508164615 | 48 | 22 | 2.0 | 4.0 | 0.00 | 0.00 | 0.00 | 80 | 1013.3 |
| 20260508163615 | 47 | 247 | 1.0 | 3.0 | 0.00 | 0.00 | 0.00 | 81 | 1013.3 |
| 20260508162656 | 46 | 22 | 4.0 | 5.0 | 0.00 | 0.00 | 0.00 | 80 | 1013.3 |